Flag for Czech Republic Weather past 2 weeks in Ostrava, Czech Republic

Now
51 °F

Passing clouds.


Feels Like: N/A
Forecast: 39 / 54 °F
Wind: N/A

Location: Ostrava / Mosnov

Current Time: Apr 19, 2015 at 7:43:55 PM

Latest Report: Apr 19, 2015 at 7:00 PM


Visibility: 25 mi

Pressure: 30.13 "Hg

Humidity: 41%

Dew point: 28 °F

Location of OstravaLocation

Historic Weather in Ostrava — Graph

°F

Ostrava temperature yesterday

Maximum temperature yesterday: 46 °F (at 12:00 AM)
Minimum temperature yesterday: 36 °F (at 6:00 AM)
Average temperature yesterday: 41 °F

Past Weeks' High & Low Weather Summary

 TemperatureHumidityPressure
High71 °F (Apr 16, 1:00 PM)96% (Apr 5, 12:00 AM)30.51 "Hg (Apr 5, 12:00 AM)
Low29 °F (Apr 5, 2:00 AM)31% (Apr 14, 11:00 AM)29.82 "Hg (Apr 16, 3:00 PM)
Average47 °F66%30.21 "Hg
* Reported Apr 4 6:00 PM — Apr 19 6:00 PM, Ostrava, Weather by CustomWeather, © 2015

Note: Actual official high and low records may vary slightly from our data, if they occured in-between our weather recording intervals... More about our weather records

Advertising

Ostrava weather history for previous 24 hours

 ConditionsComfort  
Time TempWeatherWind HumidityBarometerVisibility
6:00 PM
Sun, Apr 19
51 °FOvercast.N/A41%30.13 "Hg25 mi
5:00 PM52 °FPartly sunny.N/A41%30.12 "Hg25 mi
4:00 PM53 °FPartly sunny.N/A34%30.13 "Hg25 mi
3:00 PM51 °FPartly sunny.N/A38%30.15 "Hg25 mi
2:00 PM52 °FPartly sunny.N/A36%30.16 "Hg19 mi
1:00 PM51 °FPartly sunny.N/A38%30.16 "Hg19 mi
12:00 PM49 °FScattered clouds.3 mph40%30.18 "Hg16 mi
11:00 AM47 °FPartly sunny.N/A47%30.20 "Hg16 mi
10:00 AM45 °FPartly sunny.N/A50%30.21 "Hg16 mi
9:00 AM44 °FPassing clouds.N/A56%30.22 "Hg12 mi
8:00 AM40 °FPassing clouds.N/A70%30.22 "Hg12 mi
7:00 AM35 °FPassing clouds.2 mph81%30.22 "Hg12 mi
6:00 AM34 °FPartly sunny.3 mph83%30.21 "Hg16 mi
5:00 AM34 °FOvercast.3 mph83%30.21 "Hg12 mi
4:00 AM37 °FOvercast.2 mph78%30.20 "Hg12 mi
3:00 AM37 °FOvercast.2 mph78%30.22 "Hg16 mi
2:00 AM36 °FOvercast.3 mph79%30.22 "Hg12 mi
1:00 AM36 °FPassing clouds.2 mph76%30.23 "Hg9 mi
12:00 AM38 °FPassing clouds.1 mph73%30.22 "Hg16 mi
11:00 PM
Sat, Apr 18
38 °FOvercast.2 mph74%30.23 "Hg16 mi
10:00 PM37 °FPassing clouds.2 mph73%30.22 "Hg16 mi
9:00 PM40 °FPassing clouds.2 mph64%30.21 "Hg16 mi
8:00 PM41 °FPassing clouds.3 mph62%30.19 "Hg19 mi
7:00 PM43 °FPartly sunny.5 mph56%30.18 "Hg12 mi
Weather by CustomWeather, © 2015

See weather overviewHow to use our weather pages